Regional Weather Roundup
Issued by NWS Austin/San Antonio, TX

Home | Current Version | Previous Version | Text Only | Print | Product List | Glossary On
Versions: 1 2 3 4 5 6 7 8 9 10 11 12 13 14 15 16 17 18 19 20 21 22 23 24 25 26 27 28 29 30 31 32 33 34 35 36 37 38 39 40 41 42 43 44 45 46 47 48 49 50
000
ASUS44 KEWX 211010
RWREWX
SOUTH TEXAS REGIONAL WEATHER ROUNDUP
NATIONAL WEATHER SERVICE AUSTIN/SAN ANTONIO TX
500 AM CDT SUN APR 21 2019

NOTE: "FAIR" INDICATED FEW OR NO CLOUDS BELOW 12,000 FEET WITH NO
SIGNIFICANT WEATHER AND/OR OBSTRUCTIONS TO VISIBILITY.

* - THESE STATIONS ARE NOT NWS OR FAA STATIONS...AND ARE NOT SUBJECT
    TO NWS AND FAA QUALITY CONTROL.

TXZ171-172-183>190-211100-
TEXAS HILL COUNTRY AND EDWARDS PLATEAU

CITY           SKY/WX    TMP DP  RH WIND       PRES   REMARKS
JUNCTION       CLEAR     61  50  67 S8        29.92S
*LLANO         CLEAR     57  52  82 CALM      29.96S
BURNET         CLEAR     60  51  72 S10       29.95S
*HORSESHOE BAY CLEAR     61  50  69 S7        29.93S
*KERRVILLE     CLEAR     56  53  88 SE8       29.96S
*FREDERICKSBRG CLEAR     57  49  75 S7        29.95S
*ROCKSPRINGS     N/A     57  52  82 S15G23    29.97S
*BOERNE STAGE  CLEAR     55  55 100 CALM      29.97S
*CASTROVILLE   CLEAR     57  56  97 CALM      29.97S
HONDO          CLOUDY    60  58  92 NE5       29.95R
*UVALDE        CLEAR     56  54  95 NE9       29.94S
DEL RIO        CLEAR     64  54  69 E14G21    29.87F
LAUGHLIN AFB   CLEAR     60  55  82 E10       29.89S
CARRIZO SPRGS  CLEAR     59  55  88 E3        29.90R
*FAITH RANCH   CLEAR     64  59  82 SE7       29.88S
$$

TXZ173-191>194-202-209-217>225-228-211100-
CENTRAL AND SOUTH CENTRAL TEXAS

CITY           SKY/WX    TMP DP  RH WIND       PRES   REMARKS
GEORGETOWN     CLEAR     61  57  87 S7        29.96S
AUSTIN/BERGSTM CLEAR     53  51  93 CALM      29.95S
AUSTIN/MABRY   CLEAR     59  55  87 S5        29.96S
*AUSTIN/EXEC   CLEAR     57  55  94 S5        29.96R
*LAGO VISTA    CLEAR     59  56  90 S8        29.95S
SAN MARCOS     CLEAR     55  53  93 S3        29.96F
NEW BRAUNFELS  CLEAR     56  55  97 W3        29.94F
RANDOLPH AFB   FOG       55  54  94 CALM      29.96S VSB 3/8
PT SAN ANTONIO CLEAR     56  55  97 CALM      29.93S
SAN ANTONIO    PTCLDY    59  56  89 SE5       29.96S
STINSON FIELD  CLEAR     56  52  86 CALM      29.94S
*LA GRANGE     CLEAR     59  59 100 SE5       29.95R
*GIDDINGS      CLEAR     60  60  99 CALM      29.97S
*GONZALES      CLEAR     58  58 100 SE3       29.95S
$$

TXZ163>164-176>182-195>201-210>213-226-227-235-211100-
SOUTHEAST TEXAS

CITY           SKY/WX    TMP DP  RH WIND       PRES   REMARKS
COLLEGE STN    CLEAR     57  56  96 SE6       29.97F
*BRYAN         CLEAR     54  54 100 SE6       29.98F
*CALDWELL      CLEAR     56  55  98 SE3       29.97S FOG
*CROCKETT        N/A     54  50  87 CALM      30.03S
*BRENHAM       CLEAR     56  56 100 CALM      29.98F
HUNTSVILLE     PTCLDY    58  53  84 S5        29.99S
CONROE         CLEAR     48  48 100 CALM      30.01R
HOUSTON BUSH   CLEAR     58  55  90 SE3       30.00S
HOUSTON HOBBY  FAIR      58  53  84 SE5       29.99F
*HOUSTON SW AP FAIR      51  51 100 CALM      30.01S
PEARLAND       FAIR      56  55  97 CALM      30.01S
HOUSTON HOOKS  FAIR      54  53  97 CALM      30.00S
ELLINGTON FLD  NOT AVBL
SUGAR LAND     FAIR      57  54  89 SE3       29.99S
*HOUSTON EXEC  FAIR      55  54  94 CALM      30.00S
*CLEVELAND MUN FAIR      50  50 100 CALM      30.02S
*WHARTON       PTCLDY    55  54  94 SE3       29.99F
*COLUMBUS      FAIR      57  52  84 SE3       29.99S
*EAGLE LAKE    SUNNY     56  55  97 SE3       29.98
$$

TXZ214>216-236>238-211100-
THE UPPER TEXAS COAST

CITY           SKY/WX    TMP DP  RH WIND       PRES   REMARKS
*ORANGE        FAIR      52  52 100 CALM      30.05S FOG
PORT ARTHUR    FAIR      55  53  93 CALM      30.02S
GALVESTON      FAIR      65  58  78 S10       30.01S
ANGLETON       FAIR      54  52  93 CALM      30.00S
*BAY CITY      PTCLDY    59  58  96 SE5       29.99S
PALACIOS       PTCLDY    67  64  90 SE9       29.97F
$$

TXZ229>234-239>247-211100-
TEXAS COASTAL BEND AND RIO GRANDE PLAINS

CITY           SKY/WX    TMP DP  RH WIND       PRES   REMARKS
VICTORIA       PTCLDY    60  58  92 SE8       29.96F
*BEEVILLE      PTCLDY    59  55  88 SE7       29.93F
ROCKPORT       CLEAR     69  62  78 S10       29.94F
*PORT ARANSAS  PTCLDY    71  64  79 SE14G20   29.96S
*PORT LAVACA   PTCLDY    64  62  94 SE6       29.97S
*INGLESIDE     CLEAR     69  64  82 S10       29.94F
CORPUS CHRISTI CLEAR     64  60  87 SE7       29.94S
CORPUS NAS     CLEAR     73  66  78 S15       29.94S
*ROBSTOWN      NOT AVBL
ALICE          PTCLDY    58  57  97 SE5       29.93S
KINGSVILLE NAS PTCLDY    67  63  87 SE12      29.93S
COTULLA        CLEAR     62  60  93 SE10      29.91S
LAREDO         CLOUDY    66  62  87 SE9       29.88S
$$

TXZ248>255-211100-
DEEP SOUTH TEXAS

CITY           SKY/WX    TMP DP  RH WIND       PRES   REMARKS
BROWNSVILLE    FAIR      67  64  90 SE8       29.94S
PORT ISABEL    FAIR      69  63  81 SE13      29.93S
HARLINGEN      CLEAR     63  60  90 SE8       29.93S
*HEBBRONVILLE  CLOUDY    64  61  90 SE12      29.92F
MCALLEN        CLEAR     70  65  84 SE14      29.91F
*WESLACO       CLOUDY    68  64  88 S9        29.92
FALFURRIAS     PTCLDY    64  60  86 SE7       29.92F
EDINBURG       FAIR      68  64  88 SE6       29.92F
*ZAPATA        FAIR      67  62  83 SE10G16   29.90S
$$

TXZ213>215-236>238-242>244-246-247-251-254-255-211100-
CMAN STATIONS

STATION/POSITION TIME  TEMP    WIND        PRES    WAVE
                       AIR SEA DIR/SP/G            HT/PER
                 (UTC) (F)     (DEG/KT/KT) (MB)    (FT/S)
SABINE PASS      0942   63 70  190/  5/  8 1018.3
SEA RIM ST PARK  1000   67     190/  9/ 11 1016.8
NORTH JETTY/GLS  0942   69 69  180/ 12/ 15 1015.8
EAGLE POINT      0942   67 70  180/  8/  9 1016.1
MORGANS POINT    0942   66 70  170/  5/  8 1015.9
PORT O`CONNOR    0936   69 71  160/ 16/ 18 1014.2
PORT ARANSAS     1000   71 72  150/ 18/ 21 1013.6
MALAQUITE BEACH  0936   72 73  130/ 17/ 21 1013.3
BAFFIN BAY       0936   71 71  140/ 15/ 17 1014.0
PORT ISABEL      0936   71 75  150/ 12/ 17 1014.1
$$



USA.gov is the U.S. government's official web portal to all federal, state and local government web resources and services.